Вернуться в каталог

STARLINK-31550

АктивенСвязьVLEO
NORAD 59338·PAYLOAD·🇺🇸 United States

Запущен Mar 25, 2024 с Cape Canaveral Space Force Station

Loading…

Ближайшие Пролёты (ближайшие 24 часа)

TLE

СвежийSource: CelesTrak SupGP

Эпоха: Sep 14, 2026, 13:47 UTC

1 59338C 24057U   26257.57479167 -.00023973  00000+0 -86845-3 0  2570
2 59338  43.0015 200.7078 0001737 265.3333  51.5417 15.27584656    13

Отслеживайте STARLINK-31550 в реальном времени с AllMySat

Download on the App Store